Home > Weather > Gliwice > Past weeks

Flag for Poland Weather for the Past 2 Weeks in Gliwice, Poland

Now
45 °F

Scattered clouds.


Feels Like: 39 °F
Forecast: 36 / 49 °F
Wind: 12 mph from Southwest

Location: Katowice Airport

Current Time: Feb 6, 2016 at 1:28:19 PM

Latest Report: Feb 6, 2016 at 1:00 PM


Visibility: N/A

Pressure: 30.18 "Hg

Humidity: 76%

Dew point: 37 °F

Location of GliwiceLocation

Historic Weather in Gliwice — Graph

°F

Gliwice Temperature Yesterday

Maximum temperature yesterday: 36 °F (at 2:30 PM)
Minimum temperature yesterday: 30 °F (at 6:00 PM)
Average temperature yesterday: 32 °F

High & Low Weather Summary for the Past Weeks

 TemperatureHumidityPressure
High54 °F (Jan 30, 2:00 PM)100% (Jan 24, 2:30 AM)30.51 "Hg (Jan 24, 2:30 AM)
Low5 °F (Jan 23, 2:30 AM)44% (Jan 30, 2:30 PM)29.62 "Hg (Jan 31, 3:00 AM)
Average37 °F83%30.11 "Hg
* Reported Jan 22 12:00 Noon — Feb 6 12:30 PM, Gliwice, Weather by CustomWeather, © 2016

Note: Actual official high and low records may vary slightly from our data, if they occured in-between our weather recording intervals... More about our weather records

Advertising

Gliwice Weather History for the Previous 24 Hours

 ConditionsComfort  
Time TempWeatherWind HumidityBarometerVisibility
12:30 PM
Sat, Feb 6
45 °FPassing clouds.14 mph76%30.18 "HgN/A
12:00 PM43 °FSunny.13 mph76%30.18 "Hg10 mi
11:30 AM43 °FSunny.12 mph76%30.18 "Hg10 mi
11:00 AM41 °FBroken clouds.14 mph76%30.18 "HgN/A
10:30 AM41 °FPartly sunny.10 mph76%30.21 "HgN/A
10:00 AM39 °FPartly sunny.9 mph81%30.21 "HgN/A
9:30 AM37 °FPartly sunny.9 mph81%30.21 "HgN/A
9:00 AM37 °FPartly sunny.8 mph81%30.21 "HgN/A
8:30 AM36 °FOvercast.7 mph87%30.21 "HgN/A
8:00 AM36 °FMore clouds than sun.8 mph81%30.21 "HgN/A
7:30 AM36 °FPartly sunny.9 mph81%30.21 "HgN/A
7:00 AM36 °FMostly cloudy.9 mph81%30.21 "HgN/A
6:30 AM36 °FMostly cloudy.9 mph81%30.18 "HgN/A
6:00 AM36 °FOvercast.9 mph75%30.18 "HgN/A
5:00 AM34 °FMostly cloudy.10 mph81%30.18 "HgN/A
4:30 AM34 °FMostly cloudy.8 mph81%30.18 "HgN/A
4:00 AM34 °FMostly cloudy.12 mph81%30.21 "HgN/A
3:00 AM34 °FPartly cloudy.12 mph81%30.21 "HgN/A
2:30 AM34 °FPassing clouds.12 mph75%30.21 "HgN/A
1:30 AM34 °FPassing clouds.9 mph75%30.21 "HgN/A
1:00 AM34 °FPassing clouds.7 mph75%30.21 "HgN/A
12:30 AM32 °FClear.6 mph80%30.21 "Hg10 mi
12:00 AM32 °FClear.6 mph75%30.21 "Hg6 mi
11:30 PM
Fri, Feb 5
32 °FClear.8 mph80%30.21 "Hg4 mi
11:00 PM32 °FIce fog.9 mph80%30.21 "Hg3 mi
10:30 PM30 °FIce fog.7 mph86%30.24 "Hg2 mi
10:00 PM30 °FIce fog.8 mph86%30.24 "Hg2 mi
9:30 PM30 °FIce fog.7 mph86%30.24 "Hg2 mi
9:00 PM30 °FIce fog.6 mph86%30.24 "Hg2 mi
8:30 PM30 °FIce fog.6 mph93%30.24 "Hg2 mi
8:00 PM30 °FIce fog.5 mph86%30.24 "Hg2 mi
7:30 PM32 °FIce fog.7 mph87%30.24 "Hg3 mi
7:00 PM32 °FIce fog.8 mph87%30.24 "Hg3 mi
6:30 PM30 °FPassing clouds.7 mph86%30.24 "Hg4 mi
6:00 PM30 °FPassing clouds.5 mph86%30.24 "Hg5 mi
5:30 PM32 °FPassing clouds.2 mph80%30.24 "Hg4 mi
5:00 PM32 °FPassing clouds.5 mph80%30.24 "HgN/A
4:30 PM34 °FPassing clouds.8 mph81%30.24 "HgN/A
4:00 PM32 °FPassing clouds.8 mph87%30.24 "HgN/A
3:30 PM36 °FPassing clouds.10 mph70%30.24 "HgN/A
3:00 PM36 °FPassing clouds.13 mph75%30.24 "HgN/A
2:30 PM36 °FScattered clouds.13 mph75%30.24 "HgN/A
2:00 PM34 °FSnow flurries. Broken clouds.13 mph81%30.24 "HgN/A
1:30 PM34 °FBroken clouds.9 mph87%30.24 "HgN/A
1:00 PM34 °FBroken clouds.15 mph87%30.24 "HgN/A
Weather by CustomWeather, © 2016

See weather overviewHow to use our weather pages